DW7098 Weather Reports


time (UTC)temp
C
wind
direction
speed
KPH
gust
KPH
rain 1hr
cm
rain 24hr
cm
rain mn
cm
humidity
%
barometer
mb
20260831033041 16 239 0.0 1.6 0.00 0.00 0.00
20260831030052 16 225 0.0 1.6 0.00 0.00 0.00
20260831023033 17 255 0.0 3.2 0.00 0.00 0.00
20260831020105 18 230 0.0 3.2 0.00 0.00 0.00
20260831013046 18 235 0.0 4.8 0.00 0.00 0.00
20260831010055 19 209 1.6 6.4 0.00 0.00 0.00
20260831000104 20 116 0.0 11.3 0.00 0.00 0.00
20260830233044 21 215 3.2 6.4 0.00 0.00 0.00
20260830223035 21 314 4.8 14.5 0.00 0.00 0.00
20260830220108 22 225 3.2 12.9 0.00 0.00 0.00
20260830213049 21 268 4.8 14.5 0.00 0.00 0.00
20260830203042 20 253 4.8 14.5 0.00 0.00 0.00
20260830200050 19 176 1.6 8.0 0.00 0.00 0.00
20260830193031 19 233 1.6 9.7 0.00 0.00 0.00
20260830190105 18 207 3.2 8.0 0.00 0.00 0.00
20260830183047 18 196 0.0 6.4 0.00 0.00 0.00
20260830180058 18 256 0.0 6.4 0.00 0.00 0.00
20260830163037 15 56 0.0 1.6 0.00 0.00 0.00
20260830153024 14 80 0.0 1.6 0.00 0.00 0.00
20260830150107 13 54 0.0 1.6 0.00 0.00 0.00
20260830140059 12 54 0.0 0.0 0.00 0.00 0.00
20260830133041 12 54 0.0 0.0 0.00 0.00 0.00
20260830130110 12 54 0.0 0.0 0.00 0.00 0.00
20260830123049 12 54 0.0 0.0 0.00 0.00 0.00
20260830120058 12 54 0.0 0.0 0.00 0.00 0.00
20260830113038 12 53 0.0 0.0 0.00 0.00 0.00
20260830103042 12 53 0.0 0.0 0.00 0.00 0.00
20260830100052 12 53 0.0 0.0 0.00 0.00 0.00
20260830093031 12 73 0.0 1.6 0.00 0.00 0.00
20260830090056 12 73 0.0 1.6 0.00 0.00 0.00
20260830083037 12 70 0.0 4.8 0.00 0.00 0.00
20260830080107 12 128 0.0 1.6 0.00 0.00 0.00
20260830060051 12 224 0.0 0.0 0.00 0.00 0.00
20260830053053 13 224 0.0 0.0 0.00 0.00 0.00
20260830043045 13 268 0.0 1.6 0.00 0.00 0.00
20260830040057 14 264 0.0 0.0 0.00 0.00 0.00